Flag for U.S.A. Weather past 2 weeks in Irving, Texas, U.S.A.

Now
60 °F

Passing clouds.


Feels Like: 60 °F
Forecast: 59 / 81 °F
Wind: No wind

Location: Dallas / Fort Worth International Airport

Current Time: Oct 20, 2014 at 5:13:22 AM

Latest Report: Oct 20, 2014 at 4:53 AM


Visibility: 10 mi

Pressure: 30.03 "Hg

Humidity: 80%

Dew point: 54 °F

Location of IrvingLocation

Historic Weather in Irving — Graph

°F

Irving temperature yesterday

Maximum temperature yesterday: 76 °F (at 3:53 PM)
Minimum temperature yesterday: 59 °F (at 7:53 AM)
Average temperature yesterday: 66 °F

Past Weeks' High & Low Weather Summary

 TemperatureHumidityPressure
High97 °F (Oct 7, 3:53 PM)100% (Oct 13, 6:53 AM)30.16 "Hg (Oct 13, 6:53 AM)
Low51 °F (Oct 15, 6:53 AM)19% (Oct 16, 2:53 PM)29.58 "Hg (Oct 13, 12:53 AM)
Average72 °F61%29.91 "Hg
* Reported Oct 5 3:53 AM — Oct 20 3:53 AM, Irving, Weather by CustomWeather, © 2014

Note: Actual official high and low records may vary slightly from our data, if they occured in-between our weather recording intervals... More about our weather records

Advertising

Irving weather history for previous 24 hours

 ConditionsComfort  
Time TempWeatherWind HumidityBarometerVisibility
3:53 AM
Oct 20
59 °FPassing clouds.No wind81%30.02 "Hg10 mi
2:53 AM61 °FPassing clouds.3 mph75%30.02 "Hg10 mi
1:53 AM62 °FPassing clouds.3 mph73%30.02 "Hg10 mi
12:53 AM62 °FPassing clouds.5 mph73%30.02 "Hg10 mi
11:53 PM
Oct 19
64 °FPassing clouds.6 mph70%30.03 "Hg10 mi
9:53 PM66 °FPassing clouds.5 mph70%30.05 "Hg10 mi
8:53 PM67 °FPassing clouds.6 mph68%30.05 "Hg10 mi
7:53 PM69 °FPassing clouds.7 mph63%30.04 "Hg10 mi
6:53 PM70 °FPassing clouds.6 mph61%30.03 "Hg10 mi
5:53 PM75 °FPassing clouds.6 mph52%30.02 "Hg10 mi
4:53 PM75 °FPassing clouds.6 mph52%30.03 "Hg10 mi
3:53 PM76 °FPassing clouds.6 mph48%30.04 "Hg10 mi
2:53 PM74 °FScattered clouds.5 mph50%30.06 "Hg10 mi
1:53 PM73 °FPartly sunny.5 mph50%30.09 "Hg10 mi
12:53 PM70 °FPartly sunny.9 mph53%30.13 "Hg10 mi
11:53 AM68 °FMostly cloudy.12 mph55%30.14 "Hg10 mi
10:53 AM67 °FPartly sunny.14 mph57%30.15 "Hg10 mi
9:53 AM65 °FScattered clouds.16 mph61%30.16 "Hg10 mi
8:53 AM62 °FBroken clouds.7 mph73%30.15 "Hg10 mi
7:53 AM59 °FPassing clouds.3 mph78%30.13 "Hg10 mi
6:53 AM60 °FPassing clouds.5 mph75%30.11 "Hg10 mi
5:53 AM60 °FClear.5 mph78%30.09 "Hg10 mi
Weather by CustomWeather, © 2014

See weather overviewHow to use our weather pages